Location: Unspecified
(0.0000°N, 0.0000°E)
Time: 11:32:40
(UTC+00:00)

Courier 1B Rocket - Pass Details

Date: 24 November 2019
Orbit: 920 x 1202 km, 28.2° (Epoch: 07 December)

Event Time Altitude Azimuth Distance (km) Brightness Sun altitude
Rises 11:10:55 0° 276° (W) 3,548 7.8 67.7°
Reaches altitude 10° 11:14:27 10° 296° (WNW) 2,619 7.2 68.0°
Maximum altitude 11:18:28 17° 336° (NNW) 2,159 6.8 68.3°
Drops below altitude 10° 11:22:35 10° 16° (NNE) 2,691 7.3 68.6°
Sets 11:26:18 0° 35° (NE) 3,688 7.9 68.9°
